Hourly Data Report for May 12, 2016

All times are specified in Local Standard Time (LST). Add 1 hour to adjust for Daylight Saving Time where and when it is observed.

LA RONGE RCS
SASKATCHEWAN

55°08'47.020" N
105°16'13.030" W
378.60 m
4064149
71586
XOX

Download Data

Hourly Data (May 2016)
Hourly Data Report for May 12, 2016
TIME Temp Definition
°C
Dew Point Definition
°C
Rel Hum Definition
%
Wind Dir Definition
10's deg

Wind Spd Definition
km/h
Visibility Definition
km
Stn Press Definition
kPa
Hmdx Definition


Wind Chill Definition


Weather Definition


00:00 0.2 -1.0 91 1 17   97.94     LegendNANA
01:00 0.2 -1.2 91 1 19   97.91     LegendNANA
02:00 0.2 -1.6 88 1 17   97.90     LegendNANA
03:00 0.0 -1.5 89 36 16   97.88   -5 LegendNANA
04:00 0.1 -1.8 87 1 19   97.88     LegendNANA
05:00 -0.2 -2.3 86 1 23   97.91   -6 LegendNANA
06:00 -0.2 -2.0 88 1 22   97.93   -6 LegendNANA
07:00 -0.2 -2.5 85 1 25   97.95   -6 LegendNANA
08:00 -0.6 -2.4 87 1 20   97.98   -6 LegendNANA
09:00 -0.5 -2.1 89 1 22   98.01   -6 LegendNANA
10:00 -0.3 -2.3 87 2 26   98.05   -6 LegendNANA
11:00 0.4 -1.2 89 36 16   98.06     LegendNANA
12:00 1.0 -1.4 84 1 23   98.09     LegendNANA
13:00 1.8 -2.2 75 1 26   98.12     LegendNANA
14:00 1.6 -2.1 76 2 27   98.19     LegendNANA
15:00 2.1 -2.6 71 35 23   98.19     LegendNANA
16:00 3.5 -2.4 65 1 20   98.18     LegendNANA
17:00 4.2 -3.2 58 34 15   98.15     LegendNANA
18:00 4.9 -4.0 53 34 12   98.14     LegendNANA
19:00 5.8 -5.5 44 1 14   98.14     LegendNANA
20:00 5.2 -5.4 46 2 13   98.16     LegendNANA
21:00 3.4 -4.6 56 33 6   98.17     LegendNANA
22:00 2.0 -5.3 59 31 7   98.17     LegendNANA
23:00 1.6 -4.8 62 31 8   98.18     LegendNANA

Notes on Data Quality.

Legend

  • E = Estimated
  • M = Missing
  • NA = Not Available
Date modified: